Weather History for KIKV - August, 2014

Change the Weather History Date:

Monday, August 18, 2014

  Actual Average (KDSM) Record (KDSM)
Temperature  
Mean Temperature 78 °F 74 °F  
Max Temperature 87 °F 84 °F 108 °F (1936)
Min Temperature 68 °F 65 °F 47 °F (1897)
Degree Days  
Heating Degree Days 0 0  
Month to date heating degree days 0  
Since 1 June heating degree days 18  
Since 1 July heating degree days 1  
Cooling Degree Days 12 9  
Month to date cooling degree days 186  
Year to date cooling degree days 832  
Since 1 June cooling degree days 756  
Growing Degree Days 28 (Base 50)    
Moisture  
Dew Point 69 °F    
Average Humidity 78    
Maximum Humidity 100    
Minimum Humidity 49    
Precipitation  
Precipitation 0.00 in 0.14 in 2.46 in (2015)
Month to date precipitation 2.46  
Year to date precipitation 25.05  
Snow  
Snow 0.00 in 0.00 in - ()
Month to date snowfall 0.0  
Since 1 June snowfall 0.0  
Since 1 July snowfall 0.0  
Snow Depth -    
Sea Level Pressure  
Sea Level Pressure 29.83 in    
Wind  
Wind Speed 6 mph (SSW)    
Max Wind Speed 14 mph    
Max Gust Speed 18 mph    
Visibility 10 miles    
Events      
T = Trace of Precipitation, MM = Missing Value Source: NWS Daily Summary

Daily Weather History Graph

Daily Weather History Graph

Search for Another Location

Airport or City:

Trip Planner

Search our weather history database for the weather conditions in past years. The results will help you decide how hot, cold, wet, or windy it might be!

Date:

Astronomy

Aug. 18, 2014 Rise Set
Actual Time 6:25 AM CDT 8:09 PM CDT
Civil Twilight 5:56 AM CDT 8:39 PM CDT
Nautical Twilight 5:20 AM CDT 9:14 PM CDT
Astronomical Twilight 4:41 AM CDT 9:53 PM CDT
Moon 12:32 AM CDT (8/18) 3:14 PM CDT (8/18)
Length of Visible Light 14h 42m
Length of Day
13h 43m
Last Quarter, 38% of the Moon is Illuminated
Aug 18
Last Quarter
Aug 25
New
Sep 2
First Quarter
Sep 8
Full
Sep 15
Last Quarter

Hourly Weather History & Observations

Time (CDT) Temp. Heat Index Dew Point Humidity Pressure Visibility Wind Dir Wind Speed Gust Speed Precip Events Conditions
12:15 AM 69.8 °F - 68.0 °F 94% 29.96 in 10.0 mi WSW 4.6 mph - N/A   Clear
12:35 AM 71.6 °F - 68.0 °F 88% 29.96 in 10.0 mi SW 5.8 mph - N/A   Clear
12:55 AM 71.6 °F - 68.0 °F 88% 29.95 in 10.0 mi Calm Calm - N/A   Clear
1:15 AM 68.0 °F - 66.2 °F 94% 29.94 in 10.0 mi SE 3.5 mph - N/A   Clear
1:35 AM 68.0 °F - 66.2 °F 94% 29.92 in 10.0 mi SSE 4.6 mph - N/A   Clear
1:55 AM 68.0 °F - 66.2 °F 94% 29.91 in 10.0 mi Calm Calm - N/A   Clear
2:15 AM 68.0 °F - 66.2 °F 94% 29.90 in 9.0 mi South 4.6 mph - N/A   Clear
2:35 AM 68.0 °F - 66.2 °F 94% 29.89 in 10.0 mi South 4.6 mph - N/A   Clear
2:55 AM 71.6 °F - 68.0 °F 88% 29.88 in 10.0 mi SSW 9.2 mph - N/A   Clear
3:15 AM 71.6 °F - 68.0 °F 88% 29.88 in 10.0 mi South 6.9 mph - N/A   Clear
3:35 AM 71.6 °F - 68.0 °F 88% 29.87 in 10.0 mi SSW 8.1 mph - N/A   Clear
3:55 AM 69.8 °F - 68.0 °F 94% 29.86 in 10.0 mi Calm Calm - N/A   Clear
4:15 AM 68.0 °F - 68.0 °F 100% 29.87 in 9.0 mi Calm Calm - N/A   Clear
4:35 AM 69.8 °F - 68.0 °F 94% 29.87 in 9.0 mi SSW 5.8 mph - N/A   Clear
4:55 AM 69.8 °F - 68.0 °F 94% 29.87 in 10.0 mi Calm Calm - N/A   Clear
5:15 AM 68.0 °F - 68.0 °F 100% 29.87 in 9.0 mi SW 3.5 mph - N/A   Clear
5:35 AM 68.0 °F - 68.0 °F 100% 29.86 in 8.0 mi Calm Calm - N/A   Clear
5:55 AM 68.0 °F - 66.2 °F 94% 29.85 in 7.0 mi SSE 5.8 mph - N/A   Clear
6:15 AM 68.0 °F - 68.0 °F 100% 29.86 in 6.0 mi Calm Calm - N/A   Clear
6:35 AM 68.0 °F - 66.2 °F 94% 29.85 in 3.0 mi SE 4.6 mph - N/A   Clear
6:55 AM 68.0 °F - 68.0 °F 100% 29.85 in 4.0 mi SE 4.6 mph - N/A   Clear
7:15 AM 68.0 °F - 68.0 °F 100% 29.85 in 5.0 mi SE 3.5 mph - N/A   Clear
7:35 AM 69.8 °F - 68.0 °F 94% 29.86 in 6.0 mi SE 4.6 mph - N/A   Clear
7:55 AM 69.8 °F - 68.0 °F 94% 29.85 in 8.0 mi SE 5.8 mph - N/A   Clear
8:15 AM 69.8 °F - 68.0 °F 94% 29.87 in 10.0 mi Calm Calm - N/A   Clear
8:35 AM 71.6 °F - 69.8 °F 94% 29.87 in 10.0 mi SSE 4.6 mph - N/A   Clear
8:55 AM 73.4 °F - 69.8 °F 88% 29.88 in 10.0 mi SSW 5.8 mph - N/A   Clear
9:15 AM 75.2 °F - 69.8 °F 83% 29.88 in 10.0 mi SW 10.4 mph - N/A   Clear
9:35 AM 77.0 °F - 69.8 °F 78% 29.88 in 10.0 mi SW 12.7 mph - N/A   Clear
9:55 AM 77.0 °F - 69.8 °F 78% 29.87 in 10.0 mi SW 6.9 mph 13.8 mph N/A   Clear
10:15 AM 78.8 °F - 69.8 °F 74% 29.87 in 10.0 mi SW 10.4 mph - N/A   Clear
10:35 AM 78.8 °F - 69.8 °F 74% 29.87 in 10.0 mi SW 9.2 mph - N/A   Clear
10:55 AM 78.8 °F - 69.8 °F 74% 29.86 in 10.0 mi WSW 6.9 mph 12.7 mph N/A   Clear
11:15 AM 80.6 °F 83.9 °F 69.8 °F 70% 29.86 in 10.0 mi Variable 6.9 mph 13.8 mph N/A   Clear
11:35 AM 80.6 °F 83.9 °F 69.8 °F 70% 29.86 in 10.0 mi South 10.4 mph - N/A   Clear
11:55 AM 82.4 °F 85.4 °F 68.0 °F 62% 29.85 in 10.0 mi SW 8.1 mph - N/A   Clear
12:15 PM 82.4 °F 87.2 °F 71.6 °F 70% 29.85 in 10.0 mi South 10.4 mph - N/A   Clear
12:35 PM 82.4 °F 87.2 °F 71.6 °F 70% 29.85 in 10.0 mi SSW 10.4 mph - N/A   Clear
12:55 PM 84.2 °F 89.6 °F 71.6 °F 66% 29.84 in 10.0 mi SSW 10.4 mph - N/A   Clear
1:15 PM 84.2 °F 89.6 °F 71.6 °F 66% 29.84 in 10.0 mi South 8.1 mph - N/A   Clear
1:35 PM 84.2 °F 88.4 °F 69.8 °F 62% 29.83 in 10.0 mi SW 8.1 mph - N/A   Clear
1:55 PM 86.0 °F 90.4 °F 69.8 °F 58% 29.83 in 10.0 mi SW 10.4 mph 16.1 mph N/A   Clear
2:15 PM 86.0 °F 91.8 °F 71.6 °F 62% 29.82 in 10.0 mi South 11.5 mph 17.3 mph N/A   Clear
2:35 PM 86.0 °F 91.8 °F 71.6 °F 62% 29.81 in 10.0 mi SSW 10.4 mph 18.4 mph N/A   Partly Cloudy
2:55 PM 86.0 °F 90.4 °F 69.8 °F 58% 29.81 in 10.0 mi SW 11.5 mph 18.4 mph N/A   Partly Cloudy
3:15 PM 86.0 °F 91.8 °F 71.6 °F 62% 29.80 in 10.0 mi SW 10.4 mph 17.3 mph N/A   Scattered Clouds
3:35 PM 86.0 °F 91.8 °F 71.6 °F 62% 29.80 in 10.0 mi SSW 11.5 mph - N/A   Mostly Cloudy
3:55 PM 87.8 °F 90.4 °F 66.2 °F 49% 29.79 in 10.0 mi SSW 10.4 mph - N/A   Scattered Clouds
4:15 PM 87.8 °F 90.4 °F 66.2 °F 49% 29.79 in 10.0 mi Variable 6.9 mph 12.7 mph N/A   Clear
4:35 PM 87.8 °F 91.4 °F 68.0 °F 52% 29.78 in 10.0 mi SSW 13.8 mph - N/A   Clear
4:55 PM 87.8 °F 90.4 °F 66.2 °F 49% 29.78 in 10.0 mi SW 11.5 mph - N/A   Clear
5:15 PM 87.8 °F 90.4 °F 66.2 °F 49% 29.78 in 10.0 mi SW 8.1 mph - N/A   Clear
5:35 PM 87.8 °F 90.4 °F 66.2 °F 49% 29.77 in 10.0 mi WSW 6.9 mph - N/A   Clear
5:55 PM 86.0 °F 88.2 °F 66.2 °F 51% 29.77 in 10.0 mi WSW 9.2 mph - N/A   Clear
6:15 PM 86.0 °F 88.2 °F 66.2 °F 51% 29.76 in 10.0 mi SW 9.2 mph - N/A   Clear
6:35 PM 84.2 °F 87.3 °F 68.0 °F 58% 29.76 in 10.0 mi SW 8.1 mph 16.1 mph N/A   Partly Cloudy
6:55 PM 84.2 °F 88.4 °F 69.8 °F 62% 29.75 in 10.0 mi SW 10.4 mph - N/A   Partly Cloudy
7:15 PM 84.2 °F 88.4 °F 69.8 °F 62% 29.74 in 10.0 mi SW 11.5 mph - N/A   Clear
7:35 PM 82.4 °F 87.2 °F 71.6 °F 70% 29.74 in 10.0 mi SW 9.2 mph 16.1 mph N/A   Partly Cloudy
7:55 PM 82.4 °F 87.2 °F 71.6 °F 70% 29.74 in 10.0 mi SW 8.1 mph 13.8 mph N/A   Partly Cloudy
8:15 PM 80.6 °F 83.9 °F 69.8 °F 70% 29.73 in 10.0 mi SW 9.2 mph - N/A   Clear
8:35 PM 80.6 °F 83.9 °F 69.8 °F 70% 29.74 in 10.0 mi SW 8.1 mph - N/A   Clear
8:55 PM 78.8 °F - 71.6 °F 78% 29.75 in 10.0 mi SW 6.9 mph - N/A   Clear
9:15 PM 78.8 °F - 71.6 °F 78% 29.76 in 10.0 mi SW 5.8 mph - N/A   Clear
9:35 PM 77.0 °F - 71.6 °F 83% 29.77 in 10.0 mi SW 3.5 mph - N/A   Clear
9:55 PM 77.0 °F - 71.6 °F 83% 29.77 in 10.0 mi SSW 6.9 mph - N/A   Clear
10:15 PM 77.0 °F - 73.4 °F 89% 29.77 in 10.0 mi SSW 5.8 mph - N/A   Clear
10:35 PM 77.0 °F - 73.4 °F 89% 29.76 in 10.0 mi SW 5.8 mph - N/A   Clear
11:15 PM 75.2 °F - 71.6 °F 89% 29.76 in 10.0 mi SW 5.8 mph - N/A   Clear
11:55 PM 75.2 °F - 71.6 °F 89% 29.76 in 10.0 mi SW 8.1 mph - N/A   Clear